Regional Weather Roundup
Issued by NWS Newport/Morehead, NC

Current Version | Previous Version | Text Only | Print | Product List | Glossary On
Versions: 1 2 3 4 5 6 7 8 9 10 11 12 13 14 15 16 17 18 19 20 21 22 23 24 25 26 27 28 29 30 31 32 33 34 35 36 37 38 39 40 41 42 43 44 45 46 47 48 49 50
000
ASUS42 KMHX 262013
RWRMHX
WEATHER ROUNDUP FOR EASTERN NORTH CAROLINA
NATIONAL WEATHER SERVICE NEWPORT/MOREHEAD CITY NC
300 PM EST SUN FEB 26 2017

NOTE: "FAIR" INDICATES FEW OR NO CLOUDS BELOW 12,000 FEET
WITH NO SIGNIFICANT WEATHER AND/OR OBSTRUCTIONS TO VISIBILITY

NCZ015>017-031-032-045>047-102-103-262100-
NORTH COAST

CITY           SKY/WX    TMP DP  RH WIND       PRES   REMARKS
EDENTON        SUNNY     56  24  28 SW7       30.15S
ELIZABETH CITY SUNNY     54  24  31 W6        30.14S
KITTY HAWK     NOT AVBL
MANTEO         SUNNY     52  26  37 NW7       30.15S

$$

NCZ045>047-081-094-103-104-262100-
CENTRAL COAST

CITY           SKY/WX    TMP DP  RH WIND       PRES   REMARKS
FRISCO         SUNNY     55  33  43 CALM      30.16R

$$

NCZ095-097-098-100-101-262100-
SOUTHERN COAST

CITY           SKY/WX    TMP DP  RH WIND       PRES   REMARKS
BEAUFORT       SUNNY     57  33  40 S10       30.16R
CEDAR ISLAND   NOT AVBL
JACKSONVILLE   SUNNY     60  20  21 NW12      30.16S
PINEY ISLAND   CLEAR    N/A N/A N/A VRB5      30.16R
WILMINGTON     SUNNY     60  19  20 VRB3      30.18R


$$

NCZ011>013-027>030-043-044-078>080-089-090>093-098-262100-
COASTAL PLAIN

CITY           SKY/WX    TMP DP  RH WIND       PRES   REMARKS
AHOSKIE          N/A     53  21  28 CALM      30.15S
CLINTON        SUNNY     57  21  25 W7        30.18S
ELIZABETHTOWN  SUNNY     58  21  23 SW7       30.18S
GOLDSBORO      SUNNY     58  13  17 W5        30.14S
GREENVILLE     SUNNY     57  19  23 W3        30.17R
HAVELOCK       SUNNY     59  22  24 VRB5      30.16S
KENANSVILLE    SUNNY     57  18  21 NW9       30.18R
KINSTON        SUNNY     57  14  18 W6        30.17S
NEW BERN       SUNNY     59  20  22 W9        30.17R
RICHLANDS      SUNNY     59  20  22 NW8       30.17S
ROCKY MOUNT    SUNNY     55  20  25 MISG      30.16S
WASHINGTON     SUNNY     56  19  23 NW6       30.16R
WHITEVILLE     SUNNY     58  19  21 W5        30.18S

$$

AMZ130-135-150-152-154-156-158-170-250-252-270-ANZ085-086-088-633-658-670-262100-
MARINE OBSERVATIONS

STATION/POSITION TIME  TEMP    WIND        PRES    WAVE   SWELL
                       AIR SEA DIR/SP/G            HT/PER HT/PER
                 (UTC) (F)     (DEG/KT/KT) (MB)    (FT/S) (FT/S)
CHESAPEAKE LIGHT NOT AVBL
64 E VA BEACH    1950   43 51  340/ 12/ 16 1020.9    5/ 9   5/ 9
DUCK             1948   45 49   70/  7/  8 1020.8
2 E DUCK         2000      50                N/A     4/10   2/11
OREGON INLET     1942   46 56   40/  8/ 10 1021.0
13E OREGON INLT  NOT AVBL
HATTERAS CG      1948   52 61  280/  4/  5 1020.9
DIAMOND BUOY     1950   52 72  330/  6/ 10 1021.4    5/ 9   5/ 9
CAPE LOOKOUT     2000   54     240/  6/  8 1021.1
BEAUFORT LAB     1948   54 62  170/  9/ 12 1020.2
30 SE NEW RVR IN 1908   52     320/  6/ 12 1021.9
30 SE NEW RVR IN 1943      65                N/A     3/ 9
27 SE WRIGHTSVLE 1908   53 61  320/  4/ 10 1021.5
5 SE WRIGHTSVLE  1908   55 59  150/  6/  8 1021.6
225 S CAPE HAT   1950   68 71  340/ 14/ 16 1019.9    7/ 7   7/ 7
41 SE CHARLESTON 1950   57 69  330/  4/  6 1022.7    3/10   3/10

$$



USA.gov is the U.S. government's official web portal to all federal, state and local government web resources and services.